Yoho Park, British Columbia

12:33 AM MDT on October 20, 2017 (GMT -0600)
Yoho Park

Weather History for CWYL - December, 2012

Change the Weather History Date:

Friday, December 21, 2012

  Actual Average Record
Temperature  
Mean Temperature 13 °F -  
Max Temperature 21 °F - - ()
Min Temperature 5 °F - - ()
Degree Days  
Heating Degree Days 52    
Moisture  
Dew Point 11 °F    
Average Humidity 89    
Maximum Humidity 95    
Minimum Humidity 79    
Precipitation  
Precipitation 0.00 in - - ()
Sea Level Pressure  
Sea Level Pressure 30.01 in    
Wind  
Wind Speed 4 mph ()    
Max Wind Speed 14 mph    
Max Gust Speed -    
T = Trace of Precipitation, MM = Missing Value Source: Averaged Metar Reports

Daily Weather History Graph

Daily Weather History Graph

Search for Another Location

Airport or City:

Trip Planner

Search our weather history database for the weather conditions in past years. The results will help you decide how hot, cold, wet, or windy it might be!

Date:

Astronomy

Dec. 21, 2012 Rise Set
Actual Time 8:48 AM MST 4:38 PM MST
Civil Twilight 8:08 AM MST 5:19 PM MST
Nautical Twilight 7:25 AM MST 6:02 PM MST
Astronomical Twilight 6:44 AM MST 6:43 PM MST
Moon 12:55 PM MST (12/21) 2:10 AM MST (12/21)
Length of Visible Light 9h 10m
Length of Day
7h 50m
Waxing Gibbous, 65% of the Moon is Illuminated
Dec 21
Waxing Gibbous
Dec 28
Full
Jan 4
Last Quarter
Jan 11
New
Jan 18
First Quarter

Hourly Weather History & Observations

Time (MST) Temp. Windchill Dew Point Humidity Pressure Visibility Wind Dir Wind Speed Gust Speed Precip Events Conditions
12:00 AM 18.1 °F - 16.7 °F 94% 29.83 in - Calm Calm - N/A   Unknown
1:00 AM 19.2 °F 10.2 °F 17.8 °F 94% 29.81 in - West 6.9 mph - N/A   Unknown
2:00 AM 20.1 °F 12.3 °F 18.9 °F 95% 29.81 in - West 5.8 mph - N/A   Unknown
3:00 AM 19.9 °F 8.6 °F 18.7 °F 95% 29.85 in - West 10.4 mph - N/A   Unknown
4:00 AM 21.0 °F 11.4 °F 19.8 °F 95% 29.89 in - WSW 8.1 mph - N/A   Unknown
5:00 AM 18 °F - 17 °F 92% 29.93 in - West 6.9 mph - -  
5:00 AM 18.5 °F 9.3 °F 16.7 °F 93% 29.93 in - West 6.9 mph - N/A   Unknown
6:00 AM 16.9 °F 7.4 °F 15.3 °F 93% 29.95 in - WSW 6.9 mph - N/A   Unknown
7:00 AM 15.8 °F - 14.0 °F 93% 29.99 in - West 1.2 mph - N/A   Unknown
8:00 AM 14.4 °F - 12.6 °F 93% 30.02 in - West 1.2 mph - N/A   Unknown
9:00 AM 13.3 °F 5.6 °F 11.1 °F 91% 30.04 in - West 4.6 mph - N/A   Unknown
10:00 AM 12.4 °F - 10.0 °F 90% 30.04 in - West 2.3 mph - N/A   Unknown
11:00 AM 11 °F - 9 °F 88% 30.08 in - East 1.2 mph - -  
11:00 AM 11.5 °F - 9.1 °F 90% 30.08 in - East 1.2 mph - N/A   Unknown
12:00 PM 14.0 °F - 9.9 °F 84% 30.06 in - NE 1.2 mph - N/A   Unknown
1:00 PM 13.3 °F - 9.7 °F 86% 30.06 in - Calm Calm - N/A   Unknown
2:00 PM 13.6 °F - 10.6 °F 88% 30.06 in - Calm Calm - N/A   Unknown
3:00 PM 12.7 °F - 9.5 °F 87% 30.06 in - WSW 1.2 mph - N/A   Unknown
4:00 PM 10.9 °F - 7.5 °F 86% 30.06 in - WSW 2.3 mph - N/A   Unknown
5:00 PM 8 °F - 5 °F 82% 30.09 in - WSW 2.3 mph - -  
5:00 PM 8.4 °F - 5.2 °F 87% 30.09 in - WSW 2.3 mph - N/A   Unknown
6:00 PM 6.1 °F -0.9 °F 2.7 °F 86% 30.11 in - WSW 3.5 mph - N/A   Unknown
7:00 PM 5.2 °F - 2.3 °F 88% 30.10 in - WSW 1.2 mph - N/A   Unknown
8:00 PM 9.7 °F -5.0 °F 7.0 °F 89% 30.09 in - ENE 11.5 mph - N/A   Unknown
9:00 PM 9.3 °F -5.4 °F 6.6 °F 89% 30.09 in - ENE 11.5 mph - N/A   Unknown
10:00 PM 7.9 °F -8.0 °F 4.8 °F 87% 30.10 in - ENE 12.7 mph - N/A   Unknown
11:00 PM 8 °F - 5 °F 79% 30.09 in - ENE 13.8 mph - -  
11:00 PM 7.7 °F -8.9 °F 4.6 °F 87% 30.09 in - ENE 13.8 mph - N/A   Unknown